Location: Doux
(49.5045°N, 4.4321°E)
Time: 14:37:08
(UTC+00:00)

ATLAS 2AS CENTAUR R/B - Pass Details

Date: 23 May 2024
Orbit: 1017 x 1194 km, 63.7° (Epoch: 18 June)

Event Time Altitude Azimuth Distance (km) Brightness Sun altitude
Rises 01:30:09 0° 315° (NW) 3,930 5.9 -15.6°
Reaches altitude 10° 01:32:59 10° 321° (NW) 2,943 5.3 -15.4°
Maximum altitude 01:39:43 49° 36° (NE) 1,334 3.7 -14.9°
Drops below altitude 10° 01:46:10 10° 111° (ESE) 2,829 5.0 -14.4°
Sets 01:48:50 0° 117° (ESE) 3,766 5.6 -14.2°
